TimeCDT,TemperatureF,Dew PointF,Humidity,Sea Level PressureIn,VisibilityMPH,Wind Direction,Wind SpeedMPH,Gust SpeedMPH,PrecipitationIn,Events,Conditions,WindDirDegrees,DateUTC
12:56 AM,28.0,25.2,89,30.35,10.0,WNW,8.1,-,N/A,,Scattered Clouds,290,2013-03-27 05:56:00
1:56 AM,31.1,26.1,82,30.35,10.0,West,9.2,-,N/A,,Overcast,280,2013-03-27 06:56:00
2:56 AM,31.1,25.2,79,30.35,10.0,West,6.9,-,N/A,,Overcast,280,2013-03-27 07:56:00
3:56 AM,31.1,25.2,79,30.34,10.0,West,9.2,-,N/A,,Overcast,280,2013-03-27 08:56:00
4:56 AM,30.0,23.0,75,30.34,10.0,WNW,9.2,-,N/A,,Overcast,290,2013-03-27 09:56:00
5:56 AM,30.0,22.1,72,30.36,10.0,West,9.2,-,N/A,,Overcast,280,2013-03-27 10:56:00
6:56 AM,30.0,22.1,72,30.37,10.0,West,8.1,-,N/A,,Mostly Cloudy,280,2013-03-27 11:56:00
7:56 AM,31.1,23.0,72,30.39,10.0,WNW,8.1,-,N/A,,Clear,290,2013-03-27 12:56:00
8:56 AM,32.9,24.1,70,30.39,10.0,WNW,6.9,-,N/A,,Clear,290,2013-03-27 13:56:00
9:56 AM,36.0,22.1,57,30.40,10.0,WNW,6.9,-,N/A,,Clear,290,2013-03-27 14:56:00
10:56 AM,37.9,21.0,51,30.40,10.0,NNW,9.2,-,N/A,,Clear,330,2013-03-27 15:56:00
11:56 AM,38.8,21.0,49,30.41,10.0,NW,9.2,-,N/A,,Mostly Cloudy,310,2013-03-27 16:56:00
12:56 PM,41.0,19.0,41,30.40,10.0,NW,13.8,-,N/A,,Mostly Cloudy,320,2013-03-27 17:56:00
1:56 PM,41.0,20.1,43,30.39,10.0,NNW,9.2,-,N/A,,Clear,330,2013-03-27 18:56:00
2:56 PM,39.9,20.1,45,30.37,10.0,Variable,5.8,-,N/A,,Partly Cloudy,0,2013-03-27 19:56:00
3:56 PM,41.0,21.0,45,30.36,10.0,NW,6.9,-,N/A,,Partly Cloudy,310,2013-03-27 20:56:00
4:56 PM,41.9,22.1,45,30.36,10.0,WNW,8.1,-,N/A,,Scattered Clouds,300,2013-03-27 21:56:00
5:56 PM,41.0,21.0,45,30.35,10.0,Calm,Calm,-,N/A,,Scattered Clouds,0,2013-03-27 22:56:00
6:56 PM,36.9,27.1,68,30.36,10.0,WSW,12.7,-,N/A,,Clear,240,2013-03-27 23:56:00
7:56 PM,34.9,25.2,68,30.36,10.0,WSW,8.1,-,N/A,,Clear,240,2013-03-28 00:56:00
8:56 PM,32.9,25.2,73,30.38,10.0,WSW,8.1,-,N/A,,Clear,240,2013-03-28 01:56:00
9:56 PM,32.9,23.0,67,30.38,10.0,WSW,8.1,-,N/A,,Clear,240,2013-03-28 02:56:00
10:56 PM,32.0,22.1,67,30.38,10.0,WSW,5.8,-,N/A,,Clear,250,2013-03-28 03:56:00
11:56 PM,31.1,22.1,69,30.38,10.0,West,8.1,-,N/A,,Clear,270,2013-03-28 04:56:00